#timestamp,LO_Frequency,Hit 
1500548415.1,286046951.5,N
1500548435.9,286046949.0,N
1500548455.7,286046951.2,N
1500548475.5,286046947.1,N
1500548495.4,286046949.8,N
1500548515.2,286046951.6,N
1500548535.0,286046950.3,N
1500548535.9,286046950.3,N
1500548555.8,286046951.0,N
1500548575.6,286046951.5,N
1500548595.5,286046949.1,N
1500548615.3,286046948.6,N
1500548635.1,286046951.0,N
1500548655.9,286046948.5,N
1500548675.7,286046949.0,N
1500548695.5,286046949.2,N
1500548715.4,286046951.5,N
1500548735.2,286046950.7,N
1500548755.0,286046951.3,N
1500548756.0,286046951.3,N
1500548775.8,286046950.3,N
1500548795.6,286046948.9,N
1500548815.5,286046949.8,N
1500548835.3,286046948.8,N
1500548855.1,286046948.6,N
1500548875.9,286046948.9,N
1500548895.7,286046950.0,N
1500548915.6,286046949.6,N
1500548935.4,286046949.7,N
1500548955.2,286046948.6,N
1500548975.1,286046950.8,N
1500548976.0,286046950.8,N
1500548995.8,286046951.2,N
1500549015.6,286046948.9,N
1500549035.5,286046948.9,N
1500549055.3,286046951.3,N
1500549075.2,286046950.5,N
1500549095.9,286046951.3,N
1500549115.7,286046948.5,N
1500549135.6,286046949.8,N
1500549155.4,286046949.4,N
1500549175.2,286046945.6,N
1500549195.1,286046946.1,N
1500549196.0,286046946.1,N
1500549215.8,286046944.2,N
1500549235.7,286046943.9,N
1500549255.5,286046944.6,N
1500549275.3,286046943.7,N
1500549295.2,286046945.0,N
1500549315.0,286046942.1,N
1500549315.9,286046942.1,N
1500549335.8,286046946.8,N
1500549355.6,286046944.3,N
1500549375.4,286046944.3,N
1500549395.3,286046946.6,N
1500549415.1,286046945.9,N
1500549435.8,286046946.7,N
1500549455.7,286046946.3,N
1500549475.5,286046947.9,N
1500549495.4,286046946.4,N
1500549515.2,286046943.5,N
1500549535.0,286046940.8,N
1500549535.9,286046940.8,N
1500549555.8,286046941.1,N
1500549575.6,286046942.0,N
1500549595.4,286046937.3,N
1500549615.3,286046940.4,N
1500549635.1,286046936.4,N
1500549655.9,286046936.8,N
1500549675.7,286046937.0,N
1500549695.5,286046934.8,N
1500549715.4,286046935.5,N
1500549735.2,286046934.5,N
1500549755.0,286046932.9,N
1500549755.9,286046932.9,N
1500549775.8,286046932.6,N
1500549795.6,286046935.6,N
1500549815.5,286046934.4,N
1500549835.3,286046935.5,N
1500549855.1,286046933.4,N
1500549875.9,286046934.8,N
1500549895.7,286046935.6,N
1500549915.5,286046935.3,N
1500549935.4,286046934.4,N
1500549955.2,286046937.2,N
1500549975.1,286046937.0,N
1500549976.0,286046937.0,N
1500549995.8,286046937.1,N
1500550015.6,286046934.8,N
1500550035.5,286046934.1,N
1500550055.3,286046935.8,N
1500550075.1,286046937.4,N
1500550095.9,286046940.3,N
1500550115.7,286046939.3,N
1500550135.6,286046937.5,N
1500550155.4,286046939.9,N
1500550175.2,286046939.3,N
1500550195.1,286046938.9,N
1500550196.0,286046938.9,N
1500550215.8,286046941.0,N
1500550235.6,286046937.4,N
1500550255.5,286046936.9,N
1500550275.3,286046938.2,N
1500550295.2,286046940.0,N
1500550315.9,286046938.7,N
1500550335.7,286046935.8,N
1500550355.6,286046938.2,N
1500550375.4,286046937.1,N
1500550395.2,286046935.1,N
1500550415.1,286046933.1,N
1500550416.0,286046933.1,N
1500550435.8,286046931.9,N
1500550455.7,286046930.2,N
1500550475.5,286046928.0,N
1500550495.3,286046928.2,N
1500550515.2,286046929.0,N
1500550535.0,286046930.4,N
1500550535.9,286046930.4,N
1500550555.7,286046930.1,N
1500550575.6,286046932.1,N
1500550595.4,286046931.1,N
1500550615.3,286046931.3,N
1500550635.1,286046932.5,N
1500550655.8,286046933.5,N
1500550675.7,286046931.4,N
1500550695.5,286046932.1,N
1500550715.4,286046932.9,N
1500550735.2,286046933.0,N
1500550755.0,286046932.7,N
1500550755.9,286046932.7,N
1500550775.8,286046935.4,N
1500550795.6,286046932.8,N
1500550815.5,286046934.3,N
1500550835.3,286046934.5,N
1500550855.1,286046936.8,N
1500550875.9,286046937.0,N
1500550895.7,286046936.4,N
1500550915.5,286046938.7,N
1500550935.4,286046938.8,N
1500550955.2,286046936.1,N
1500550975.1,286046936.5,N
1500550976.0,286046936.5,N
1500550995.8,286046936.9,N
1500551015.6,286046935.9,N
1500551035.5,286046937.8,N
1500551055.3,286046937.9,N
1500551075.1,286046936.2,N
1500551095.9,286046938.5,N
1500551115.7,286046940.0,N
1500551135.6,286046938.7,N
1500551155.4,286046937.1,N
1500551175.2,286046938.1,N
1500551195.1,286046937.5,N
1500551196.0,286046937.5,N
1500551215.8,286046937.2,N
1500551235.6,286046935.9,N
1500551255.5,286046938.4,N
1500551275.3,286046934.4,N
1500551295.2,286046932.5,N
1500551315.9,286046936.1,N
1500551335.7,286046934.8,N
1500551355.6,286046936.8,N
1500551375.4,286046934.7,N
1500551395.2,286046933.3,N
1500551415.1,286046935.1,N
1500551435.1,286046934.1,N
1500551455.9,286046936.3,N
1500551475.7,286046936.8,N
1500551495.5,286046934.2,N
1500551515.4,286046934.9,N
1500551535.2,286046936.3,N
1500551555.0,286046936.3,N
1500551555.9,286046936.3,N
1500551575.8,286046932.9,N
1500551595.6,286046935.1,N
1500551615.5,286046933.4,N
1500551635.3,286046931.5,N
1500551655.1,286046927.9,N
1500551675.9,286046929.8,N
1500551695.7,286046934.0,N
1500551715.5,286046932.0,N
1500551735.4,286046931.1,N
1500551755.2,286046932.8,N
1500551775.1,286046933.8,N
1500551776.0,286046933.8,N
1500551795.8,286046931.9,N
1500551815.6,286046931.9,N
1500551835.5,286046927.8,N
1500551855.3,286046928.2,N
1500551875.1,286046926.5,N
1500551895.9,286046926.8,N
1500551915.7,286046924.5,N
1500551935.6,286046925.0,N
1500551955.4,286046926.5,N
1500551975.2,286046926.3,N
1500551995.1,286046926.6,N
1500551996.0,286046926.6,N
